Hauptseite
METAR-TAF:

METAR-TAF

Flughäfen :

Goeree Le, Niederlande

Bohrplattform

Breite: 51-55-33N, Länge: 3-40-12E, Höhe: 19 m

Beobachtung

Neuester Wetterbericht von vor 30 Minuten, um 09:25 UTC
Wind 15 kt aus Süd/Südost
Temperatur 18°C
Luftfeuchtigkeit 52%
Luftdruck 1025 hPa
Sichtweite 10 km oder mehr

METAR: EHSC 190925Z AUTO 15015KT 9999 ///////// 18/08 Q1025 W08/H2

Zeit: 11:55 (09:55 UTC)


TAF: fehlend

Wetterbeobachtungen und Prognosen von mehr als 4000 Flughäfen (METAR und TAF Bericht).

Die verfügbaren Stationen werden durch gelbe und rote Markierungen auf der Karte dargestellt.

Führen Sie die Maus auf sie, um den Namen der Station zu sehen.

Darauf klicken, um die Beobachtung von Wetterbeobachtungen und Prognosen zu sehen.

Um die Karte zu ändern : klicken Sie auf den grünen Tasten mit einem schwarzen Kreuz Zum Vergrößern, auf den grünen Button mit einem Gedankenstrich zu verkleinern, oder auf die grünen Pfeile für benachbarte Karten.


METAR-TAF: